CW5988 Weather Reports


time (UTC)temp
C
wind
direction
speed
KPH
gust
KPH
rain 1hr
cm
rain 24hr
cm
rain mn
cm
humidity
%
barometer
mb
20260905064950 16 270 12.9 20.9 0.00 0.00 0.00 79 1014.2
20260905064417 16 252 11.3 19.3 0.00 0.00 0.00 78 1014.3
20260905063943 16 289 11.3 22.5 0.00 0.00 0.00 78 1014.3
20260905063429 16 287 11.3 24.1 0.00 0.00 0.00 78 1014.3
20260905062916 16 268 11.3 25.7 0.00 0.00 0.00 78 1014.3
20260905062420 16 280 17.7 29.0 0.00 0.00 0.00 78 1014.3
20260905061958 16 278 16.1 29.0 0.00 0.00 0.00 78 1014.2
20260905061453 16 271 12.9 20.9 0.00 0.00 0.00 78 1014.3
20260905060920 16 281 11.3 22.5 0.00 0.00 0.00 78 1014.2
20260905060428 16 276 12.9 22.5 0.00 0.00 0.00 79 1014.3
20260905055933 16 277 12.9 20.9 0.00 0.00 0.00 79 1014.3
20260905055421 16 280 9.7 20.9 0.00 0.00 0.00 79 1014.4
20260905054922 16 261 12.9 25.7 0.00 0.00 0.00 79 1014.4
20260905054428 16 261 14.5 25.7 0.00 0.00 0.00 79 1014.4
20260905053932 16 263 9.7 22.5 0.00 0.00 0.00 79 1014.5
20260905053422 16 251 14.5 22.5 0.00 0.00 0.00 79 1014.5
20260905052929 16 268 11.3 20.9 0.00 0.00 0.00 79 1014.6
20260905052417 16 229 14.5 20.9 0.00 0.00 0.00 79 1014.6
20260905051922 16 257 11.3 22.5 0.00 0.00 0.00 79 1014.7
20260905051423 16 292 9.7 22.5 0.00 0.00 0.00 78 1014.7
20260905050931 16 279 11.3 22.5 0.00 0.00 0.00 78 1014.8
20260905050437 16 282 9.7 19.3 0.00 0.00 0.00 77 1014.8
20260905045954 16 250 9.7 20.9 0.00 0.03 0.00 76 1014.8
20260905045422 16 242 11.3 20.9 0.00 0.03 0.00 75 1014.7
20260905044957 16 277 11.3 20.9 0.00 0.03 0.00 75 1014.8
20260905044422 16 275 11.3 22.5 0.00 0.03 0.00 74 1014.7
20260905043925 16 284 14.5 22.5 0.00 0.03 0.00 74 1014.7
20260905043434 16 270 14.5 27.4 0.00 0.03 0.00 73 1014.6
20260905042918 16 256 16.1 27.4 0.00 0.03 0.00 73 1014.6
20260905042424 16 289 14.5 27.4 0.00 0.03 0.00 74 1014.6
20260905041930 16 275 14.5 24.1 0.00 0.03 0.00 74 1014.6
20260905041435 16 289 14.5 27.4 0.00 0.03 0.00 75 1014.6
20260905040923 16 259 14.5 25.7 0.00 0.03 0.00 76 1014.5
20260905040430 16 276 16.1 29.0 0.00 0.03 0.00 76 1014.5
20260905035930 16 283 16.1 29.0 0.00 0.05 0.00 76 1014.3
20260905035436 16 268 17.7 25.7 0.00 0.05 0.00 76 1014.3
20260905034922 16 289 14.5 29.0 0.00 0.05 0.00 76 1014.3
20260905034429 16 277 16.1 29.0 0.00 0.05 0.00 77 1014.3
20260905033935 16 280 14.5 27.4 0.00 0.05 0.00 78 1014.2
20260905033423 16 287 16.1 27.4 0.00 0.05 0.00 79 1014.1
20260905032949 16 301 16.1 29.0 0.00 0.05 0.00 80 1014.1
20260905032432 16 304 19.3 27.4 0.00 0.05 0.00 80 1014.1
20260905031935 16 270 17.7 29.0 0.00 0.05 0.00 80 1014.1
20260905031420 16 284 17.7 32.2 0.00 0.05 0.00 80 1014.1
20260905030959 16 287 17.7 33.8 0.00 0.05 0.00 80 1014.0
20260905030449 16 268 19.3 32.2 0.00 0.05 0.00 80 1014.1
20260905025937 16 251 19.3 32.2 0.00 0.05 0.00 80 1014.1
20260905025441 16 251 20.9 32.2 0.00 0.05 0.00 80 1014.0
20260905024927 16 258 20.9 32.2 0.00 0.05 0.00 80 1013.9
20260905024434 16 282 19.3 32.2 0.00 0.05 0.00 79 1013.9
20260905023921 16 290 17.7 35.4 0.00 0.05 0.00 79 1014.0
20260905023447 16 268 22.5 33.8 0.00 0.05 0.00 78 1013.9
20260905022931 16 283 22.5 30.6 0.00 0.05 0.00 78 1013.8
20260905022418 17 282 17.7 35.4 0.00 0.05 0.00 78 1013.9
20260905021940 17 287 19.3 35.4 0.00 0.05 0.00 78 1013.9
20260905021454 17 261 24.1 38.6 0.00 0.05 0.00 78 1013.8
20260905020951 17 301 20.9 38.6 0.00 0.05 0.00 77 1013.9
20260905020435 17 283 20.9 38.6 0.00 0.05 0.00 77 1013.9
20260905015920 17 268 24.1 37.0 0.00 0.05 0.00 76 1014.0
20260905015427 17 280 20.9 35.4 0.00 0.05 0.00 75 1013.9
20260905014929 17 270 24.1 35.4 0.00 0.05 0.00 74 1013.9
20260905014417 17 296 24.1 35.4 0.00 0.05 0.00 74 1014.0
20260905013923 17 284 20.9 35.4 0.00 0.05 0.00 74 1014.0
20260905013430 17 276 20.9 33.8 0.00 0.05 0.00 74 1014.0
20260905012916 17 264 22.5 33.8 0.00 0.05 0.00 74 1014.0
20260905012424 17 275 22.5 35.4 0.00 0.05 0.00 73 1014.1
20260905011934 18 273 19.3 35.4 0.00 0.05 0.00 73 1014.0
20260905011420 18 301 19.3 33.8 0.00 0.05 0.00 72 1014.0
20260905010944 18 263 17.7 29.0 0.00 0.05 0.00 72 1014.1
20260905010431 18 265 20.9 37.0 0.00 0.05 0.00 72 1014.0
20260905005935 18 256 20.9 41.8 0.00 0.05 0.00 72 1013.9
20260905005421 18 307 20.9 41.8 0.00 0.05 0.00 71 1013.9
20260905004928 18 294 20.9 38.6 0.00 0.05 0.00 71 1014.0
20260905004435 18 264 16.1 37.0 0.00 0.05 0.00 69 1014.0
20260905003921 18 263 25.7 41.8 0.00 0.05 0.00 69 1013.9
20260905003423 18 294 27.4 41.8 0.00 0.05 0.00 70 1013.9
20260905002929 18 313 19.3 38.6 0.00 0.05 0.00 70 1013.9
20260905002436 18 277 24.1 40.2 0.00 0.05 0.00 70 1013.8
20260905001940 18 307 22.5 37.0 0.00 0.05 0.00 70 1013.9
20260905001425 18 292 19.3 37.0 0.00 0.05 0.00 71 1013.9
20260905000930 18 288 20.9 35.4 0.00 0.05 0.00 71 1013.9
20260905000435 18 257 20.9 35.4 0.00 0.05 0.00 70 1014.0
20260904235923 18 264 19.3 37.0 0.00 0.05 0.00 69 1014.1
20260904235430 18 262 24.1 37.0 0.00 0.05 0.00 69 1014.1
20260904234937 18 289 20.9 33.8 0.00 0.05 0.00 69 1014.0
20260904234452 18 277 17.7 33.8 0.00 0.05 0.00 69 1014.1
20260904233936 18 268 22.5 35.4 0.00 0.05 0.00 69 1014.1
20260904233423 19 285 19.3 33.8 0.00 0.05 0.00 69 1014.1
20260904232927 19 258 20.9 33.8 0.00 0.05 0.00 69 1014.1
20260904232428 19 270 16.1 41.8 0.00 0.05 0.00 69 1014.2
20260904231937 18 282 24.1 41.8 0.00 0.05 0.00 69 1014.1
20260904231425 19 282 19.3 35.4 0.00 0.05 0.00 69 1014.1
20260904230931 19 285 17.7 38.6 0.00 0.05 0.00 68 1014.2
20260904230435 19 280 19.3 38.6 0.00 0.05 0.00 68 1014.2
20260904225919 19 282 19.3 37.0 0.00 0.05 0.00 69 1014.3
20260904225425 19 285 19.3 41.8 0.00 0.05 0.00 70 1014.4
20260904224932 18 292 25.7 38.6 0.00 0.05 0.00 69 1014.2
20260904224432 19 321 25.7 37.0 0.00 0.05 0.00 69 1014.2
20260904223940 19 273 20.9 35.4 0.00 0.05 0.00 69 1014.4
20260904223426 19 292 20.9 37.0 0.00 0.05 0.00 69 1014.4
20260904222933 18 277 24.1 41.8 0.00 0.05 0.00 69 1014.3
20260904222438 19 282 24.1 41.8 0.00 0.05 0.00 70 1014.5
20260904221953 19 287 24.1 40.2 0.00 0.05 0.00 70 1014.6
20260904221436 19 282 19.3 43.5 0.00 0.05 0.00 70 1014.6
20260904220932 19 270 30.6 43.5 0.00 0.05 0.00 69 1014.6
20260904220418 20 301 19.3 38.6 0.00 0.05 0.00 69 1014.5
20260904215924 19 285 24.1 38.6 0.00 0.05 0.00 68 1014.5
20260904215433 20 235 16.1 35.4 0.00 0.05 0.00 68 1014.5
20260904214918 20 226 19.3 33.8 0.00 0.05 0.00 68 1014.5
20260904214425 20 253 16.1 30.6 0.00 0.05 0.00 69 1014.6
20260904213932 20 261 16.1 30.6 0.00 0.05 0.00 69 1014.6
20260904213436 19 278 14.5 27.4 0.00 0.05 0.00 69 1014.5
20260904212920 19 301 12.9 29.0 0.00 0.05 0.00 70 1014.7
20260904212428 19 310 17.7 29.0 0.00 0.05 0.00 69 1014.6
20260904211936 19 299 12.9 25.7 0.00 0.05 0.00 70 1014.7
20260904211423 19 252 11.3 29.0 0.00 0.05 0.00 71 1014.7
20260904210930 18 209 14.5 29.0 0.00 0.05 0.00 71 1014.8
20260904210418 19 220 14.5 25.7 0.00 0.05 0.00 71 1014.8
20260904205923 19 235 14.5 30.6 0.00 0.05 0.00 71 1014.8
20260904205424 18 258 12.9 32.2 0.00 0.05 0.00 71 1014.8
20260904204930 19 265 17.7 32.2 0.00 0.05 0.00 71 1014.8
20260904204435 19 292 16.1 30.6 0.00 0.05 0.00 71 1014.8
20260904203919 19 236 11.3 32.2 0.00 0.05 0.00 71 1014.7
20260904203427 19 261 14.5 29.0 0.00 0.05 0.00 71 1014.7
20260904202929 19 274 16.1 29.0 0.00 0.05 0.00 70 1014.7
20260904202425 19 330 16.1 29.0 0.00 0.05 0.00 70 1014.6
20260904201955 19 278 12.9 24.1 0.00 0.05 0.00 71 1014.6
20260904201420 19 270 14.5 22.5 0.00 0.05 0.00 70 1014.7
20260904200925 19 310 11.3 24.1 0.00 0.05 0.00 71 1014.7
20260904200431 19 284 14.5 25.7 0.00 0.05 0.00 70 1014.6
20260904195937 19 316 11.3 25.7 0.00 0.05 0.00 71 1014.7
20260904195421 19 287 12.9 22.5 0.00 0.05 0.00 71 1014.7
20260904194928 19 248 12.9 22.5 0.00 0.05 0.00 71 1014.7
20260904194432 19 236 9.7 22.5 0.00 0.05 0.00 71 1014.6
20260904193918 19 316 9.7 24.1 0.00 0.05 0.00 70 1014.7
20260904193424 19 268 14.5 24.1 0.00 0.05 0.00 70 1014.7
20260904192930 19 229 8.0 20.9 0.00 0.05 0.00 71 1014.7
20260904192417 19 282 9.7 17.7 0.00 0.05 0.00 70 1014.7
20260904191923 18 292 9.7 20.9 0.00 0.05 0.00 71 1014.8
20260904191427 18 297 11.3 20.9 0.00 0.05 0.00 70 1014.8
20260904190931 18 244 8.0 20.9 0.00 0.05 0.00 71 1014.7
20260904190437 18 258 9.7 22.5 0.00 0.05 0.00 71 1014.8
20260904185935 18 290 11.3 22.5 0.00 0.05 0.00 71 1014.8
20260904185421 18 256 9.7 24.1 0.00 0.05 0.00 72 1014.9
20260904184928 18 270 9.7 20.9 0.00 0.05 0.00 71 1014.7
20260904184433 18 261 11.3 20.9 0.00 0.05 0.00 71 1014.7
20260904183918 18 275 11.3 20.9 0.00 0.05 0.00 71 1014.6
20260904183424 18 244 12.9 20.9 0.00 0.05 0.00 71 1014.6
20260904182924 18 283 8.0 25.7 0.00 0.05 0.00 72 1014.7
20260904182432 18 278 14.5 25.7 0.00 0.05 0.00 71 1014.6
20260904181918 18 278 11.3 22.5 0.00 0.05 0.00 72 1014.7
20260904181424 17 284 16.1 22.5 0.00 0.05 0.00 72 1014.7
20260904180928 18 295 11.3 20.9 0.00 0.05 0.00 73 1014.7
20260904180435 17 254 11.3 20.9 0.00 0.05 0.00 73 1014.6
20260904175919 17 275 9.7 19.3 0.00 0.05 0.00 74 1014.6
20260904175421 17 268 12.9 20.9 0.00 0.05 0.00 75 1014.5
20260904174956 17 252 12.9 22.5 0.00 0.05 0.00 76 1014.6
20260904174417 17 233 12.9 22.5 0.00 0.05 0.00 76 1014.6
20260904173921 17 271 12.9 22.5 0.00 0.05 0.00 77 1014.7
20260904173456 16 261 9.7 22.5 0.00 0.05 0.00 77 1014.7
20260904172920 16 263 9.7 22.5 0.00 0.05 0.00 79 1014.7
20260904172426 16 298 9.7 22.5 0.00 0.05 0.00 80 1014.7
20260904171928 16 289 12.9 22.5 0.00 0.05 0.00 80 1014.7
20260904171434 16 333 12.9 22.5 0.00 0.05 0.00 81 1014.7
20260904170921 16 280 12.9 20.9 0.00 0.05 0.00 81 1014.6
20260904170427 16 273 12.9 20.9 0.00 0.05 0.00 82 1014.6
20260904165931 16 287 11.3 19.3 0.00 0.05 0.00 82 1014.6
20260904165417 16 275 11.3 20.9 0.00 0.05 0.00 82 1014.6
20260904164924 16 295 6.4 17.7 0.00 0.05 0.00 83 1014.7
20260904164426 15 295 8.0 19.3 0.00 0.05 0.00 83 1014.6
20260904163931 15 264 11.3 24.1 0.00 0.05 0.00 83 1014.5
20260904163436 15 271 16.1 24.1 0.00 0.05 0.00 81 1014.4
20260904162920 16 305 11.3 22.5 0.00 0.05 0.00 81 1014.4
20260904162425 16 306 11.3 22.5 0.00 0.05 0.00 81 1014.3
20260904161930 16 265 11.3 20.9 0.00 0.05 0.00 80 1014.2
20260904161432 16 296 9.7 19.3 0.00 0.05 0.00 80 1014.2
20260904160916 16 273 11.3 19.3 0.00 0.05 0.00 80 1014.1
20260904160438 16 287 9.7 17.7 0.00 0.05 0.00 80 1014.2
20260904155920 16 318 9.7 17.7 0.00 0.05 0.00 80 1014.2
20260904155420 16 284 8.0 19.3 0.00 0.05 0.00 80 1014.1
20260904154923 16 294 12.9 19.3 0.00 0.05 0.00 80 1014.1
20260904154425 16 289 12.9 19.3 0.00 0.05 0.00 80 1014.1
20260904153925 16 296 8.0 16.1 0.00 0.05 0.00 81 1014.0
20260904153423 16 350 6.4 16.1 0.00 0.05 0.00 81 1014.0
20260904152955 16 306 11.3 16.1 0.00 0.05 0.00 82 1013.9
20260904152418 15 263 8.0 14.5 0.00 0.05 0.00 83 1014.0
20260904151923 15 304 8.0 14.5 0.00 0.05 0.00 83 1013.9
20260904151446 15 285 6.4 14.5 0.00 0.05 0.00 83 1013.9
20260904150928 15 226 8.0 14.5 0.00 0.05 0.00 83 1014.0
20260904150429 15 282 6.4 14.5 0.00 0.05 0.00 83 1013.8
20260904145934 15 289 9.7 14.5 0.00 0.05 0.00 83 1013.8
20260904145417 15 275 6.4 14.5 0.00 0.05 0.00 84 1013.7
20260904144922 15 277 8.0 14.5 0.00 0.05 0.00 84 1013.6
20260904144426 15 280 9.7 14.5 0.00 0.05 0.00 84 1013.5
20260904143931 15 235 6.4 14.5 0.00 0.05 0.00 84 1013.5
20260904143417 15 228 8.0 14.5 0.00 0.05 0.00 84 1013.4
20260904142923 15 282 6.4 12.9 0.00 0.05 0.00 84 1013.3
20260904142443 14 237 6.4 11.3 0.00 0.05 0.00 84 1013.2
20260904141926 14 261 8.0 11.3 0.00 0.05 0.00 84 1013.2
20260904141431 14 226 6.4 12.9 0.00 0.05 0.00 84 1013.1
20260904140936 14 207 8.0 12.9 0.00 0.05 0.00 84 1013.1
20260904140441 14 313 6.4 11.3 0.00 0.05 0.00 84 1013.0
20260904135924 14 258 6.4 11.3 0.00 0.05 0.00 84 1013.0
20260904135426 14 240 8.0 11.3 0.00 0.05 0.00 84 1012.9
20260904134929 14 273 6.4 9.7 0.00 0.05 0.00 84 1012.9
20260904134435 14 280 6.4 9.7 0.00 0.05 0.00 84 1012.9
20260904133951 14 261 3.2 9.7 0.00 0.05 0.00 84 1012.9
20260904133417 14 286 6.4 11.3 0.00 0.05 0.00 85 1012.9
20260904132921 14 275 6.4 11.3 0.00 0.05 0.00 85 1012.9
20260904132427 15 271 6.4 14.5 0.00 0.05 0.00 85 1012.7
20260904131929 15 247 8.0 14.5 0.00 0.05 0.00 85 1012.7
20260904131437 15 276 9.7 14.5 0.00 0.05 0.00 85 1012.8
20260904130954 15 290 9.7 14.5 0.00 0.05 0.00 85 1012.7
20260904130421 15 285 8.0 14.5 0.00 0.05 0.00 85 1012.7
20260904125946 15 284 9.7 14.5 0.00 0.05 0.00 85 1012.7
20260904125431 15 256 4.8 17.7 0.00 0.05 0.00 85 1012.7
20260904124932 15 298 9.7 17.7 0.00 0.05 0.00 84 1012.7
20260904124420 15 284 9.7 14.5 0.00 0.05 0.00 84 1012.7
20260904123927 15 263 8.0 11.3 0.00 0.05 0.00 84 1012.6
20260904123435 15 271 6.4 12.9 0.00 0.05 0.00 84 1012.7
20260904122924 15 244 6.4 12.9 0.00 0.05 0.00 84 1012.7
20260904122430 15 268 8.0 14.5 0.00 0.05 0.00 84 1012.7
20260904121939 15 273 8.0 14.5 0.00 0.05 0.00 84 1012.7
20260904121426 15 268 6.4 14.5 0.00 0.05 0.00 85 1012.7
20260904120929 15 215 6.4 14.5 0.00 0.05 0.00 85 1012.7
20260904120436 15 270 9.7 12.9 0.00 0.05 0.00 85 1012.7
20260904115940 15 275 6.4 12.9 0.00 0.05 0.00 85 1012.7
20260904115425 15 252 8.0 14.5 0.00 0.05 0.00 85 1012.6
20260904114931 15 282 11.3 14.5 0.00 0.05 0.00 85 1012.6
20260904114417 15 268 8.0 11.3 0.00 0.05 0.00 85 1012.6
20260904113925 15 273 8.0 9.7 0.00 0.05 0.00 85 1012.6
20260904113456 15 261 8.0 11.3 0.00 0.05 0.00 86 1012.6
20260904112921 15 270 8.0 11.3 0.00 0.05 0.00 86 1012.7
20260904112430 15 273 8.0 12.9 0.00 0.05 0.00 86 1012.7
20260904111936 15 258 9.7 14.5 0.00 0.05 0.00 86 1012.6
20260904111422 15 284 8.0 14.5 0.00 0.05 0.00 86 1012.7
20260904110949 15 280 9.7 16.1 0.00 0.05 0.00 86 1012.7
20260904110430 15 295 9.7 14.5 0.00 0.05 0.00 86 1012.7
20260904105917 15 282 8.0 14.5 0.00 0.05 0.00 87 1012.6
20260904105425 15 289 8.0 14.5 0.00 0.05 0.00 87 1012.6
20260904104933 15 268 6.4 12.9 0.00 0.05 0.00 87 1012.6
20260904104447 15 254 4.8 12.9 0.00 0.05 0.00 87 1012.6
20260904103934 15 222 4.8 12.9 0.00 0.05 0.00 87 1012.5
20260904103442 15 273 6.4 12.9 0.00 0.05 0.00 87 1012.5
20260904102952 15 230 8.0 12.9 0.00 0.05 0.00 87 1012.5
20260904102445 15 282 8.0 16.1 0.00 0.05 0.00 87 1012.6
20260904101930 15 256 8.0 16.1 0.00 0.05 0.00 87 1012.5
20260904101417 15 263 8.0 16.1 0.00 0.05 0.00 87 1012.5
20260904100924 15 275 6.4 16.1 0.00 0.05 0.00 87 1012.5
20260904100430 15 275 11.3 16.1 0.00 0.05 0.00 87 1012.5
20260904095935 15 285 8.0 16.1 0.00 0.05 0.00 87 1012.5
20260904095423 15 282 8.0 16.1 0.00 0.05 0.00 86 1012.4
20260904094945 15 270 8.0 16.1 0.00 0.05 0.00 86 1012.4
20260904094430 15 292 6.4 17.7 0.00 0.05 0.00 86 1012.4
20260904093938 15 277 4.8 11.3 0.00 0.05 0.00 86 1012.4
20260904093423 15 244 3.2 8.0 0.00 0.05 0.00 86 1012.3
20260904092927 15 285 1.6 8.0 0.00 0.05 0.00 86 1012.4
20260904092433 15 330 3.2 11.3 0.00 0.05 0.00 86 1012.4
20260904091936 16 280 6.4 11.3 0.00 0.05 0.00 86 1012.5
20260904091423 16 337 6.4 12.9 0.00 0.05 0.00 86 1012.4
20260904090930 16 330 8.0 12.9 0.00 0.05 0.00 86 1012.3
20260904090437 16 349 4.8 11.3 0.00 0.05 0.00 86 1012.3
20260904085920 16 251 6.4 20.9 0.00 0.05 0.00 86 1012.3
20260904085449 16 295 11.3 20.9 0.00 0.05 0.00 86 1012.3
20260904084934 16 268 8.0 25.7 0.00 0.05 0.00 86 1012.3
20260904084419 16 296 11.3 25.7 0.00 0.05 0.00 86 1012.3
20260904083956 16 254 11.3 24.1 0.00 0.05 0.00 86 1012.2
20260904083441 16 239 11.3 20.9 0.00 0.05 0.00 86 1012.3
20260904082927 16 268 11.3 20.9 0.00 0.05 0.00 86 1012.2
20260904082432 16 282 9.7 19.3 0.00 0.05 0.00 86 1012.1
20260904081918 16 275 8.0 24.1 0.00 0.05 0.00 86 1012.1
20260904081422 16 290 14.5 29.0 0.00 0.05 0.00 86 1012.0
20260904080924 16 265 14.5 29.0 0.00 0.05 0.00 86 1012.1
20260904080428 16 237 11.3 24.1 0.00 0.05 0.00 86 1012.1
20260904075916 16 313 14.5 25.7 0.00 0.05 0.00 86 1012.1
20260904075425 16 264 16.1 25.7 0.00 0.05 0.00 86 1012.0
20260904074931 16 292 14.5 25.7 0.00 0.05 0.00 86 1012.0
20260904074437 16 273 14.5 25.7 0.00 0.05 0.00 86 1011.9
20260904073923 16 256 14.5 25.7 0.00 0.05 0.00 86 1012.1
20260904073426 16 285 14.5 24.1 0.00 0.05 0.00 85 1011.9
20260904072930 16 285 17.7 27.4 0.00 0.05 0.00 86 1011.9
20260904072439 16 287 17.7 27.4 0.00 0.05 0.00 86 1011.9
20260904071922 16 230 14.5 25.7 0.00 0.05 0.00 86 1012.0
20260904071430 16 277 14.5 24.1 0.00 0.05 0.00 86 1012.0
20260904070938 16 292 14.5 24.1 0.00 0.05 0.00 86 1012.0
20260904070442 16 295 12.9 20.9 0.00 0.05 0.00 86 1011.9
20260904065921 16 259 11.3 25.7 0.00 0.05 0.05 86 1012.0
20260904065457 16 277 14.5 25.7 0.00 0.05 0.05 85 1011.9